Temporada 2024 · Etapa 17

Azerbaijan Grand Prix

2024-09-15 · Baku City Circuito · Azerbaijan · Azerbaijan Grand Prix · 51Lap · 306.049km
McLaren 1:32:58.007
Vitória de equipa 38pt P1 · P4
Ferrari +10.910
Mercedes +31.328
Volta mais rápida
1:45.255 · L42
Abandono
1
Yuki Tsunoda L14
Clima
27°/44°
média ar/pista · seco · humidade 38%
Safety car
1
acionado na volta L51
Uso de pneus Direção de prova
Storylines · This Grand Prix & circuit
Most SC/VSC · all-time P31
Circuito Info
Baku City Circuito Baku, Azerbaijan
51Lap 306.049km 10 corridas held (2016–) Recorde de volta 1:43.009 · Charles Leclerc (2019)
Recordes Watch · Active drivers ranked at this Grand Prix
P1 Sergio Pérez 2 vitórias · GP #1
P1 Max Verstappen 2 vitórias · GP #1
P3 Valtteri Bottas 1 vitórias · → Max Verstappen -1
P1 Sergio Pérez 4 · GP #1
P2 George Russell 3 · → Sergio Pérez -1
P2 Max Verstappen 3 · → Sergio Pérez -1
P1 Lewis Hamilton 8 largadas · GP #1
P1 Carlos Sainz 8 largadas · GP #1
P1 Lance Stroll 8 largadas · GP #1
Corrida Trace · position by lap
VSC · volta 51 largada parada SG 1 5 9 13 17 21 25 29 33 37 41 45 49 Piastri · parada nos boxes L15 Piastri PIA Piastri PIA Leclerc · parada nos boxes L16 Leclerc LEC Leclerc LEC Russell · parada nos boxes L12 Russell RUS Russell RUS Norris · parada nos boxes L37 Norris NOR Norris NOR Verstappen · parada nos boxes L12 Verstappen · parada nos boxes L49 Verstappen VER Verstappen VER Alonso · parada nos boxes L11 Alonso ALO Alonso ALO Albon · parada nos boxes L31 Albon ALB Albon ALB Colapinto · parada nos boxes L10 Colapinto COL Colapinto COL Hamilton · parada nos boxes L12 Hamilton HAM Hamilton HAM Bearman · parada nos boxes L14 Bearman BEA Bearman BEA Hülkenberg · parada nos boxes L15 Hülkenberg HUL Hülkenberg HUL Gasly · parada nos boxes L50 Gasly GAS Gasly GAS Ricciardo · parada nos boxes L49 Ricciardo RIC Ricciardo RIC Zhou · parada nos boxes L34 Zhou ZHO Zhou ZHO Ocon · parada nos boxes L49 Ocon OCO Ocon OCO Bottas · parada nos boxes L11 Bottas BOT Bottas BOT Pérez · parada nos boxes L13 Pérez · parou L49 · classificado P17 Pérez PER Pérez PER Sainz · parada nos boxes L17 Sainz · parou L49 · classificado P18 Sainz SAI Sainz SAI Stroll · parada nos boxes L1 Stroll · parada nos boxes L22 Stroll · parou L45 · classificado P19 Stroll STR Stroll STR Tsunoda · parada nos boxes L12 Tsunoda · abandono L14 Tsunoda TSU Tsunoda TSU
SC·VSC parada nos boxes punição cumprida nos boxes SG Grelha de partida carro parado posição em cada volta (desde 1996)
PosPilotoTeamGrelhaVoltaTempo / StatusPontos
1 81 Oscar Piastri McLaren 2 51 1:32:58.007 25
2 16 Charles Leclerc Ferrari 1 51 +10.910 18
3 63 George Russell Mercedes 5 51 +31.328 15
4 4 Lando Norris FL McLaren 15 51 +36.143 13
5 1 Max Verstappen Red Bull 6 51 +1:17.098 10
6 14 Fernando Alonso Aston Martin 7 51 +1:25.468 8
7 23 Alexander Albon Williams 9 51 +1:27.396 6
8 43 Franco Colapinto Williams 8 51 +1:29.541 4
9 44 Lewis Hamilton Mercedes 19 51 +1:32.401 2
10 50 Oliver Bearman Haas F1 Team 10 51 +1:33.127 1
11 27 Nico Hülkenberg Haas F1 Team 12 51 +1:33.465
12 10 Pierre Gasly Alpine F1 Team 18 51 +1:57.189
13 3 Daniel Ricciardo RB F1 Team 14 51 +2:26.907
14 24 Guanyu Zhou Sauber 17 51 +2:28.841
15 31 Esteban Ocon Alpine F1 Team 20 50 +21.344
16 77 Valtteri Bottas Sauber 16 50 +25.395
17 11 Sergio Pérez Red Bull 4 49
18 55 Carlos Sainz Ferrari 3 49
19 18 Lance Stroll Aston Martin 13 45
R 22 Yuki Tsunoda RB F1 Team 11 14 Retired
PosPilotoTeamQ1Q2Q3Diferença para a pole
1 16 Charles Leclerc Ferrari 1:42.775 1:42.056 1:41.365 POLE Q3
2 81 Oscar Piastri McLaren 1:43.033 1:42.598 1:41.686 +0.321 Q3
3 55 Carlos Sainz Ferrari 1:43.357 1:42.503 1:41.805 +0.440 Q3
4 11 Sergio Pérez Red Bull 1:43.213 1:42.263 1:41.813 +0.448 Q3
5 63 George Russell Mercedes 1:43.139 1:42.329 1:41.874 +0.509 Q3
6 1 Max Verstappen Red Bull 1:43.097 1:42.042 1:42.023 +0.658 Q3
7 44 Lewis Hamilton Mercedes 1:43.089 1:42.765 1:42.289 +0.924 Q3
8 14 Fernando Alonso Aston Martin 1:43.472 1:42.426 1:42.369 +1.004 Q3
9 43 Franco Colapinto Williams 1:43.138 1:42.473 1:42.530 +1.108 Q2
10 23 Alexander Albon Williams 1:42.899 1:42.840 1:42.859 +1.475 Q2
11 50 Oliver Bearman Haas F1 Team 1:43.471 1:42.968 +1.603 Q2
12 22 Yuki Tsunoda RB F1 Team 1:43.337 1:43.035 +1.670 Q2
13 27 Nico Hülkenberg Haas F1 Team 1:43.101 1:43.191 +1.736 Q1
14 18 Lance Stroll Aston Martin 1:43.370 1:43.404 +2.005 Q1
15 3 Daniel Ricciardo RB F1 Team 1:43.547 +2.182 Q1
15 10 Pierre Gasly Alpine F1 Team 1:43.179 +1.814 Q2
16 4 Lando Norris McLaren 1:43.609 +2.244 Q1
17 77 Valtteri Bottas Sauber 1:43.618 +2.253 Q1
18 24 Guanyu Zhou Sauber 1:44.246 +2.881 Q1
19 31 Esteban Ocon Alpine F1 Team 1:44.504 +3.139 Q1
Grelha de partida
Oficial
7
14 Fernando Alonso ▲1
8
9
23 Alexander Albon ▲1
10
50 Oliver Bearman ▲1
11
22 Yuki Tsunoda ▲1
12
13
18 Lance Stroll ▲1
14
15
4 Lando Norris ▲1
16
77 Valtteri Bottas ▲1
17
24 Guanyu Zhou ▲1
18
10 Pierre Gasly ▼3
Technical non-compliance (Fuel Flow Mass) · Virtual Safety Car infringement
19
44 Lewis Hamilton ▼12
Changes made during Parc Ferme
20
31 Esteban Ocon ▼1
Changes made during Parc Ferme · Virtual Safety Car infringement
Final grid as classificado, including any saída dos boxes largadas. Source: Jolpica-F1. The arrow compares the grid slot with the a qualificação classification; hover a drop to see the stewards document behind it.
Sem dados desta sessão.
PosPilotoMelhor voltaDiferençaVoltas
1 1 Max Verstappen 1:45.546 21
2 44 Lewis Hamilton 1:45.859 +0.313 19
3 11 Sergio Pérez 1:45.922 +0.376 17
4 4 Lando Norris 1:46.027 +0.481 18
5 55 Carlos Sainz 1:46.173 +0.627 21
6 81 Oscar Piastri 1:46.282 +0.736 18
7 14 Fernando Alonso 1:46.452 +0.906 19
8 63 George Russell 1:46.516 +0.970 18
9 16 Charles Leclerc 1:46.608 +1.062 11
10 3 Daniel Ricciardo 1:46.687 +1.141 23
11 50 Oliver Bearman 1:46.973 +1.427 23
12 27 Nico Hülkenberg 1:47.135 +1.589 20
13 18 Lance Stroll 1:47.184 +1.638 15
14 77 Valtteri Bottas 1:47.640 +2.094 18
15 22 Yuki Tsunoda 1:47.708 +2.162 21
16 43 Franco Colapinto 1:47.901 +2.355 12
17 23 Alexander Albon 1:47.955 +2.409 17
18 10 Pierre Gasly 1:48.712 +3.166 21
19 24 Guanyu Zhou 1:49.052 +3.506 19
20 31 Esteban Ocon 2:50.099 +64.553 3
Classified by best lap · source OpenF1 (2023+)
PosPilotoMelhor voltaDiferençaVoltas
1 16 Charles Leclerc 1:43.484 20
2 11 Sergio Pérez 1:43.490 +0.006 23
3 44 Lewis Hamilton 1:43.550 +0.066 22
4 55 Carlos Sainz 1:43.950 +0.466 25
5 81 Oscar Piastri 1:43.983 +0.499 25
6 1 Max Verstappen 1:44.029 +0.545 24
7 18 Lance Stroll 1:44.093 +0.609 24
8 27 Nico Hülkenberg 1:44.475 +0.991 24
9 63 George Russell 1:44.536 +1.052 16
10 50 Oliver Bearman 1:44.547 +1.063 24
11 22 Yuki Tsunoda 1:44.645 +1.161 24
12 14 Fernando Alonso 1:44.683 +1.199 25
13 23 Alexander Albon 1:44.737 +1.253 25
14 43 Franco Colapinto 1:44.749 +1.265 23
15 77 Valtteri Bottas 1:44.785 +1.301 24
16 3 Daniel Ricciardo 1:45.056 +1.572 26
17 4 Lando Norris 1:45.156 +1.672 25
18 10 Pierre Gasly 1:45.391 +1.907 22
19 31 Esteban Ocon 1:45.810 +2.326 24
20 24 Guanyu Zhou 1:45.947 +2.463 25
Classified by best lap · source OpenF1 (2023+)
PosPilotoMelhor voltaDiferençaVoltas
1 63 George Russell 1:42.514 15
2 16 Charles Leclerc 1:42.527 +0.013 17
3 4 Lando Norris 1:42.737 +0.223 15
4 81 Oscar Piastri 1:42.749 +0.235 14
5 1 Max Verstappen 1:42.862 +0.348 16
6 55 Carlos Sainz 1:42.968 +0.454 17
7 11 Sergio Pérez 1:43.024 +0.510 16
8 23 Alexander Albon 1:43.194 +0.680 14
9 43 Franco Colapinto 1:43.238 +0.724 15
10 44 Lewis Hamilton 1:43.301 +0.787 13
11 14 Fernando Alonso 1:43.474 +0.960 15
12 22 Yuki Tsunoda 1:43.503 +0.989 17
13 18 Lance Stroll 1:43.571 +1.057 19
14 3 Daniel Ricciardo 1:43.870 +1.356 18
15 10 Pierre Gasly 1:43.876 +1.362 15
16 27 Nico Hülkenberg 1:44.164 +1.650 13
17 77 Valtteri Bottas 1:44.187 +1.673 18
18 24 Guanyu Zhou 1:44.869 +2.355 20
19 31 Esteban Ocon 1
20 50 Oliver Bearman 2
Classified by best lap · source OpenF1 (2023+)
#PilotoTempo de voltaVolta
1 4 Lando Norris 1:45.255 L42
2 4 Lando Norris 1:45.432 L43
3 4 Lando Norris 1:45.591 L44
4 4 Lando Norris 1:45.626 L49
5 4 Lando Norris 1:45.662 L39
6 4 Lando Norris 1:45.842 L40
7 4 Lando Norris 1:45.863 L45
8 4 Lando Norris 1:45.886 L46
9 4 Lando Norris 1:46.051 L47
10 4 Lando Norris 1:46.104 L41
Top 10 mais rápida race voltas — #1 is the mais rápida lap of a corrida(FL).
Pit stops · como se comparam
20s 21s 22s mediana 20.6s Lando Norris · L37 · 19.712s George Russell · L12 · 19.954s Valtteri Bottas · L11 · 20.045s Fernando Alonso · L11 · 20.073s Oscar Piastri · L15 · 20.181s Lance Stroll · L22 · 20.214s Pierre Gasly · L50 · 20.257s Alexander Albon · L31 · 20.287s Guanyu Zhou · L34 · 20.520s Franco Colapinto · L10 · 20.596s Sergio Pérez · L13 · 20.630s Esteban Ocon · L49 · 20.634s Charles Leclerc · L16 · 20.671s Max Verstappen · L49 · 20.725s Yuki Tsunoda · L12 · 20.922s Lance Stroll · L1 · 21.123s Max Verstappen · L12 · 21.145s Oliver Bearman · L14 · 21.276s Lewis Hamilton · L12 · 21.289s Carlos Sainz · L17 · 21.483s Nico Hülkenberg · L15 · 21.617s Daniel Ricciardo · L49 · 21.984s
mais rápida 19.712s Lando Norris mais lenta 21.984s Daniel Ricciardo tempo de passagem pelos boxes — um ponto por paragem
PilotoParagemVoltaTempoPassagem pela saída dos boxes
18 Lance Stroll 1 1 15:06:20 21.123s
43 Franco Colapinto 1 10 15:22:39 20.596s
14 Fernando Alonso 1 11 15:24:27 20.073s
77 Valtteri Bottas 1 11 15:25:01 20.045s
1 Max Verstappen 1 12 15:26:10 21.145s
63 George Russell 1 12 15:26:14 19.954s
44 Lewis Hamilton 1 12 15:26:34 21.289s
22 Yuki Tsunoda 1 12 15:26:54 20.922s
11 Sergio Pérez 1 13 15:27:51 20.630s
50 Oliver Bearman 1 14 15:30:09 21.276s
81 Oscar Piastri 1 15 15:31:28 20.181s
27 Nico Hülkenberg 1 15 15:31:57 21.617s
16 Charles Leclerc 1 16 15:33:13 20.671s
55 Carlos Sainz 1 17 15:35:11 21.483s
18 Lance Stroll 2 22 15:45:17 20.214s
23 Alexander Albon 1 31 16:00:54 20.287s
24 Guanyu Zhou 1 34 16:07:12 20.520s
4 Lando Norris 1 37 16:11:41 19.712s
31 Esteban Ocon 1 49 16:34:42 20.634s
3 Daniel Ricciardo 1 49 16:34:12 21.984s
1 Max Verstappen 2 49 16:33:13 20.725s
10 Pierre Gasly 1 50 16:36:20 20.257s
paragens
SG 10 20 30 40 L51
81
1
M14
H37
16
1
M15
H36
63
1
M11
H40
4
1
H36
M15
1
2
M11
H37
S3·+3
14
1
M10·+1
H41
23
1
H30
M21
43
1
M9
H42
44
1
M11
H40
50
1
M13
H38
27
1
M14
H37
10
1
H49
H2
3
1
H48·+1
S3
24
1
H33·+1
M18·+1
31
1
H48·+3
H2·+3
77
1
M10·+1
H40·+1
11
1
M12
H37
55
1
M16
H33
18
2
H21·+1
H24
22
1
M11·+1
H3·+1
S Soft M Medium H Hard I Intermediate W Wet SC·VSC parada nos boxes punição cumprida nos boxes
Corrida · largura da barra = voltas com esse jogo, ·+N = montado usado com N voltas prévias · fonte OpenF1 (2023+)
Compostos indicados para este Grande Prémio
C3 Duro C4 Médio C5 Macio
A Pirelli indica três dos seus compostos secos para cada prova; quanto maior o número C, mais macio é o pneu. Documento da FIA ↗
Mais posições ganhas em pista
4
+12
P15→P4
44
+12
P19→P9
23
+11
P9→P7
50
+11
P10→P10
27
+10
P12→P11
63
+9
P5→P3
43
+9
P8→P8
24
+9
P17→P14
Mais posições perdidas
Oliver Bearman −11 Alexander Albon −9 Franco Colapinto −9
Corrida · Soma das posições ganhas em pista volta a volta — excluem-se a volta de largada e as voltas de boxes do próprio piloto. Dados de voltas de corrida desde 1996.
PilotoTipoVoltaCumpridaAplicadaMotivo
11 Sergio Pérez No further action Collision with Car 55 after Turn 2. (No further action.) Doc 64 ↗
Collision with Car 55 after Turn 2. (No further action.) Doc 64 ↗
55 Carlos Sainz No further action Collision with Car 11 after Turn 2. (No further action.) Doc 65 ↗
Collision with Car 11 after Turn 2. (No further action.) Doc 65 ↗
10 Pierre Gasly Black-and-white flag warning Overtaking under Virtual Safety Car Conditions after the chequered flag. (Warning.) Doc 69 ↗
Overtaking under Virtual Safety Car Conditions after the chequered flag. (Warning.) Doc 69 ↗
31 Esteban Ocon Black-and-white flag warning Overtaking under Virtual Safety Car Conditions after the chequered flag. (Warning.) Doc 68 ↗
Overtaking under Virtual Safety Car Conditions after the chequered flag. (Warning.) Doc 68 ↗
1 Max Verstappen Black-and-white flag warning Overtaking under Virtual Safety Car Conditions after the chequered flag. (Warning.) Doc 67 ↗
Overtaking under Virtual Safety Car Conditions after the chequered flag. (Warning.) Doc 67 ↗
27 Nico Hülkenberg Black-and-white flag warning Overtaking under Virtual Safety Car Conditions after the chequered flag. (Warning.) Doc 66 ↗
Overtaking under Virtual Safety Car Conditions after the chequered flag. (Warning.) Doc 66 ↗
Volta = volta em que a punição foi aplicada · Cumprida = volta em que foi cumprida nos boxes (em branco: somada ao tempo de corrida)
Time, drive-through and stop-go penalties come from race control messages (OpenF1, 2023+). Grid penalties never appear there — the stewards publish them as documents after the session — so they are worked back from the starting grid against the a qualificação classification, which gives places actually lost rather than the figure written in the decision.
PilotoTipoVoltaCumpridaAplicadaMotivo
31 Esteban Ocon Pit lane start The following Power Unit elements have been usados: 5th Internal Combustion Motor (ICE) 5th Turbo Charger (TC) 5th Motor Generator Unit - Heat (MGU-H) All Power Unit elements were replaced without the approval of the FIA Technical Delegate during Parc Ferm (Required to start the Corrida from the saída dos boxes.) Doc 50 ↗
The following Power Unit elements have been usados: 5th Internal Combustion Motor (ICE) 5th Turbo Charger (TC) 5th Motor Generator Unit - Heat (MGU-H) All Power Unit elements were replaced without the approval of the FIA Technical Delegate during Parc Ferm (Required to start the Corrida from the saída dos boxes.) Doc 50 ↗
44 Lewis Hamilton Pit lane start The following Power Unit elements have been usados: 5th Internal Combustion Motor (ICE) 5th Turbo Charger (TC) 5th Motor Generator Unit - Heat (MGU-H) 5th Motor Generator Unit - Kinetic (MGU-K) All Power Unit elements were replaced without the approval of (Required to start the Corrida from the saída dos boxes.) Doc 49 ↗
The following Power Unit elements have been usados: 5th Internal Combustion Motor (ICE) 5th Turbo Charger (TC) 5th Motor Generator Unit - Heat (MGU-H) 5th Motor Generator Unit - Kinetic (MGU-K) All Power Unit elements were replaced without the approval of (Required to start the Corrida from the saída dos boxes.) Doc 49 ↗
63 George Russell Advertência Alleged failing to slow under yellow flags. (Advertência (Driving).) Doc 43 ↗
Alleged failing to slow under yellow flags. (Advertência (Driving).) Doc 43 ↗
10 Pierre Gasly 실격 Exceeding the instantaneous fuel mass flow limit. (Car 10 is desclassificado from the a qualificação classification.) Doc 42 ↗
Exceeding the instantaneous fuel mass flow limit. (Car 10 is desclassificado from the a qualificação classification.) Doc 42 ↗
23 Alexander Albon Fine €5,000 Alleged released in an unsafe condition and the discard of the cooling equipment. (The competitor (Williams Racing) is fined €5,000.) Doc 41 ↗
€5,000 Alleged released in an unsafe condition and the discard of the cooling equipment. (The competitor (Williams Racing) is fined €5,000.) Doc 41 ↗
22 Yuki Tsunoda Fine €400 Pit lane speeding – 83.5 km/h (The competitor (Visa Cash App RB F1 Tem) is fined €400.) Doc 30 ↗
€400 Pit lane speeding – 83.5 km/h (The competitor (Visa Cash App RB F1 Tem) is fined €400.) Doc 30 ↗
16 Charles Leclerc Voltas deletadas TRACK LIMITS
TRACK LIMITS
63 George Russell Voltas deletadas TRACK LIMITS (PIT)
TRACK LIMITS (PIT)
10 Pierre Gasly Voltas deletadas DOUBLE YELLOW
DOUBLE YELLOW
31 Esteban Ocon Voltas deletadas TRACK LIMITS
TRACK LIMITS
Volta = volta em que a punição foi aplicada · Cumprida = volta em que foi cumprida nos boxes (em branco: somada ao tempo de corrida)
Time, drive-through and stop-go penalties come from race control messages (OpenF1, 2023+). Grid penalties never appear there — the stewards publish them as documents after the session — so they are worked back from the starting grid against the a qualificação classification, which gives places actually lost rather than the figure written in the decision.
PilotoTipoVoltaCumpridaAplicadaMotivo
16 Charles Leclerc Advertência Alleged failing to slow for yellow flags. (Advertência (Driving).) Doc 29 ↗
Alleged failing to slow for yellow flags. (Advertência (Driving).) Doc 29 ↗
24 Guanyu Zhou Back of the grid The following Power Unit elements have been usados: 3rd Energy Store (ES) 3rd Control Electronics (CE) (Required to start the Corrida from the back of the starting grid.) Doc 25 ↗
The following Power Unit elements have been usados: 3rd Energy Store (ES) 3rd Control Electronics (CE) (Required to start the Corrida from the back of the starting grid.) Doc 25 ↗
11 Sergio Pérez Black-and-white flag warning Car 11 impeding Car 55 in turn 15. (Warning.) Doc 27 ↗
Car 11 impeding Car 55 in turn 15. (Warning.) Doc 27 ↗
Volta = volta em que a punição foi aplicada · Cumprida = volta em que foi cumprida nos boxes (em branco: somada ao tempo de corrida)
Time, drive-through and stop-go penalties come from race control messages (OpenF1, 2023+). Grid penalties never appear there — the stewards publish them as documents after the session — so they are worked back from the starting grid against the a qualificação classification, which gives places actually lost rather than the figure written in the decision.
PilotoTipoVoltaCumpridaAplicadaMotivo
55 Carlos Sainz Black-and-white flag warning Car 55 allegedly impeding Car 11 in turn 13. (Warning.) Doc 17 ↗
Car 55 allegedly impeding Car 11 in turn 13. (Warning.) Doc 17 ↗
Volta = volta em que a punição foi aplicada · Cumprida = volta em que foi cumprida nos boxes (em branco: somada ao tempo de corrida)
Time, drive-through and stop-go penalties come from race control messages (OpenF1, 2023+). Grid penalties never appear there — the stewards publish them as documents after the session — so they are worked back from the starting grid against the a qualificação classification, which gives places actually lost rather than the figure written in the decision.
PilotoTipoVoltaCumpridaAplicadaMotivo
11 Sergio Pérez Black-and-white flag warning FAILING TO FOLLOW RACE DIRECTORS INSTRUCTIONS – CROSSING THE LINE AT PIT EXIT
FAILING TO FOLLOW RACE DIRECTORS INSTRUCTIONS – CROSSING THE LINE AT PIT EXIT
Volta = volta em que a punição foi aplicada · Cumprida = volta em que foi cumprida nos boxes (em branco: somada ao tempo de corrida)
Time, drive-through and stop-go penalties come from race control messages (OpenF1, 2023+). Grid penalties never appear there — the stewards publish them as documents after the session — so they are worked back from the starting grid against the a qualificação classification, which gives places actually lost rather than the figure written in the decision.
DocTítuloAssuntoPublished(CET)
1 Event Notes - Pirelli Preview ↗ 2024-09-11 10:03
2024-09-11 10:03 CET
2 Post-Corrida Checks on Car 11, Italian GP ↗ 11 Sergio Pérez 2024-09-11 10:48
11 Sergio Pérez 2024-09-11 10:48 CET
3 Corrida Director's Event Notes ↗ 2024-09-12 10:39
2024-09-12 10:39 CET
4 Event Notes - Circuito Map, Pit Lane Drawing and Red Zones ↗ 2024-09-12 14:51
2024-09-12 14:51 CET
5 Car Display Procedure ↗ 2024-09-12 15:17
2024-09-12 15:17 CET
6 PU elements usados per driver up to now ↗ 2024-09-13 07:59
2024-09-13 07:59 CET
7 RNCs usados per driver up to now ↗ 2024-09-13 08:00
2024-09-13 08:00 CET
8 Self Scrutineering ↗ 2024-09-13 08:00
2024-09-13 08:00 CET
9 Car Presentation Submissions ↗ 2024-09-13 09:00
2024-09-13 09:00 CET
11 Entry List (Corrected) ↗ 2024-09-13 09:41
2024-09-13 09:41 CET
12 Event Notes - Circuito Map, Pit Lane Drawing and Red Zones V2 ↗ 2024-09-13 10:24
2024-09-13 10:24 CET
13 P1 Classification ↗ 2024-09-13 13:01
2024-09-13 13:01 CET
14 P2 Classification ↗ 2024-09-13 16:18
2024-09-13 16:18 CET
15 Summons - Car 55 - Alleged impeding of Car 11 ↗ 55 Carlos Sainz 2024-09-13 16:36
55 Carlos Sainz 2024-09-13 16:36 CET
16 Summons - Car 11 - Alleged impeding by Car 55 ↗ 11 Sergio Pérez 2024-09-13 16:44
11 Sergio Pérez 2024-09-13 16:44 CET
17 Infringement - Car 55 - Impeding of Car 11 ↗ 55 Carlos Sainz 2024-09-13 17:21
55 Carlos Sainz 2024-09-13 17:21 CET
18 Corrida Director's Note - SC2-SC1 Time ↗ 2024-09-13 17:34
2024-09-13 17:34 CET
19 P1 and P2 Scrutineering ↗ 2024-09-13 17:37
2024-09-13 17:37 CET
20 RNCs usados outside allocation ↗ 2024-09-13 17:59
2024-09-13 17:59 CET
21 Corrida Director's Event Notes V2 ↗ 2024-09-14 08:35
2024-09-14 08:35 CET
22 Post-Classificação Procedure ↗ 2024-09-14 10:18
2024-09-14 10:18 CET
23 New PU elements for this Competition ↗ 2024-09-14 10:51
2024-09-14 10:51 CET
24 New RNCs for this Competition ↗ 2024-09-14 10:56
2024-09-14 10:56 CET
25 Infringement - Car 24 - PU elements ↗ 24 Guanyu Zhou 2024-09-14 11:41
24 Guanyu Zhou 2024-09-14 11:41 CET
26 P3 Classification ↗ 2024-09-14 11:50
2024-09-14 11:50 CET
27 Infringement - Car 11 - Impeding of Car 55 ↗ 11 Sergio Pérez 2024-09-14 12:49
11 Sergio Pérez 2024-09-14 12:49 CET
28 Summons - Car 16 - Alleged failing to slow for yellow flags ↗ 16 Charles Leclerc 2024-09-14 12:49
16 Charles Leclerc 2024-09-14 12:49 CET
29 Infringement - Car 16 - Failing to slow under yellow flags ↗ 16 Charles Leclerc 2024-09-14 13:57
16 Charles Leclerc 2024-09-14 13:57 CET
30 Infringement - Car 22 - Pit Lane Speeding ↗ 22 Yuki Tsunoda 2024-09-14 14:34
22 Yuki Tsunoda 2024-09-14 14:34 CET
31 Summons - Car 23 - Alleged unsafe condition ↗ 23 Alexander Albon 2024-09-14 15:26
23 Alexander Albon 2024-09-14 15:26 CET
33 Provisional Classificação Classification ↗ 2024-09-14 15:35
2024-09-14 15:35 CET
34 Infringement - Classificação Deleted Volta Times ↗ 2024-09-14 15:41
2024-09-14 15:41 CET
35 Infringement - Classificação Deleted Volta Times - Yellow Bandeiras ↗ 2024-09-14 16:21
2024-09-14 16:21 CET
36 Fuel Mass Flow of Car 10 ↗ 10 Pierre Gasly 2024-09-14 15:50
10 Pierre Gasly 2024-09-14 15:50 CET
37 Decision - Classificação SC2-SC1 Times ↗ 2024-09-14 15:58
2024-09-14 15:58 CET
38 Summons - Car 10 - Technical Regulations ↗ 10 Pierre Gasly 2024-09-14 16:09
10 Pierre Gasly 2024-09-14 16:09 CET
39 Summons - Car 63 - Alleged failing to slow for yellow flags ↗ 63 George Russell 2024-09-14 17:21
63 George Russell 2024-09-14 17:21 CET
40 P3 and Classificação Scrutineering ↗ 2024-09-14 18:13
2024-09-14 18:13 CET
41 Infringement - Car 23 - Unsafe condition ↗ 23 Alexander Albon 2024-09-14 19:01
23 Alexander Albon 2024-09-14 19:01 CET
42 Infringement - Car 10 - Technical non-compliance (Fuel Flow Mass) ↗ 10 Pierre Gasly 2024-09-14 19:01
10 Pierre Gasly 2024-09-14 19:01 CET
43 Infringement - Car 63 - Failing to slow for yellow flags ↗ 63 George Russell 2024-09-14 19:24
63 George Russell 2024-09-14 19:24 CET
44 Final Classificação Classification ↗ 2024-09-14 19:26
2024-09-14 19:26 CET
45 Provisional Starting Grid ↗ 2024-09-14 19:30
2024-09-14 19:30 CET
46 Parc Fermé Issues ↗ 2024-09-15 09:31
2024-09-15 09:31 CET
47 Pre-Corrida Procedure ↗ 2024-09-15 09:31
2024-09-15 09:31 CET
48 Post-Corrida Procedure ↗ 2024-09-15 09:31
2024-09-15 09:31 CET
49 Infringement - Car 44 - Changes made during Parc Ferme ↗ 44 Lewis Hamilton 2024-09-15 10:55
44 Lewis Hamilton 2024-09-15 10:55 CET
50 Infringement - Car 31 - Changes made during Parc Ferme ↗ 31 Esteban Ocon 2024-09-15 10:57
31 Esteban Ocon 2024-09-15 10:57 CET
51 Parts and parameters been replaced and or changed during Parc Fermé ↗ 2024-09-15 10:55
2024-09-15 10:55 CET
52 Final Starting Grid ↗ 2024-09-15 11:00
2024-09-15 11:00 CET
53 Summons - Car 11 - Incident with Car 55 ↗ 11 Sergio Pérez 2024-09-15 14:52
11 Sergio Pérez 2024-09-15 14:52 CET
54 Summons - Car 55 - Incident with Car 11 ↗ 55 Carlos Sainz 2024-09-15 14:54
55 Carlos Sainz 2024-09-15 14:54 CET
55 Provisional Corrida Classification ↗ 2024-09-15 15:00
2024-09-15 15:00 CET
56 Summons - McLaren Formula 1 Team - Alleged Pit Lane Infringement ↗ 2024-09-15 15:19
2024-09-15 15:19 CET
57 Summons - Car 27 - Alleged Virtual Safety Car infringement ↗ 27 Nico Hülkenberg 2024-09-15 15:36
27 Nico Hülkenberg 2024-09-15 15:36 CET
58 Summons - Car 1 - Alleged Virtual Safety Car infringement ↗ 1 Max Verstappen 2024-09-15 15:36
1 Max Verstappen 2024-09-15 15:36 CET
59 Summons - Car 31 - Alleged Virtual Safety Car infringement ↗ 31 Esteban Ocon 2024-09-15 15:37
31 Esteban Ocon 2024-09-15 15:37 CET
60 Summons - Car 10 - Alleged Virtual Safety Car infringement ↗ 10 Pierre Gasly 2024-09-15 15:37
10 Pierre Gasly 2024-09-15 15:37 CET
61 Corrida Scrutineering ↗ 2024-09-15 16:45
2024-09-15 16:45 CET
62 Infringement - Corrida Deleted Volta Times ↗ 2024-09-15 17:10
2024-09-15 17:10 CET
63 Infringement - McLaren Formula 1 Team - Pit Lane Infringement ↗ 2024-09-15 17:26
2024-09-15 17:26 CET
64 Decision - Car 11 - Alleged incident with Car 55 ↗ 11 Sergio Pérez 2024-09-15 17:27
11 Sergio Pérez 2024-09-15 17:27 CET
65 Decision - Car 55 - Alleged incident with Car 11 ↗ 55 Carlos Sainz 2024-09-15 17:16
55 Carlos Sainz 2024-09-15 17:16 CET
66 Infringement - Car 27 - Virtual Safety Car infringement ↗ 27 Nico Hülkenberg 2024-09-15 17:40
27 Nico Hülkenberg 2024-09-15 17:40 CET
67 Infringement - Car 1 - Virtual Safety Car infringement ↗ 1 Max Verstappen 2024-09-15 17:40
1 Max Verstappen 2024-09-15 17:40 CET
68 Infringement - Car 31 - Virtual Safety Car infringement ↗ 31 Esteban Ocon 2024-09-15 17:44
31 Esteban Ocon 2024-09-15 17:44 CET
69 Infringement - Car 10 - Virtual Safety Car infringement ↗ 10 Pierre Gasly 2024-09-15 17:44
10 Pierre Gasly 2024-09-15 17:44 CET
70 Final Corrida Classification ↗ 2024-09-15 17:50
2024-09-15 17:50 CET
71 Campeonato Pontos ↗ 2024-09-15 17:56
2024-09-15 17:56 CET
FIA official decisions and documents (fia.com) · PDF original PDF links
Record Basis · Calculation basis
Corrida order is the final classification(post-race penalties applied) · a qualificação session data 2003+ · lap times 1996+ · pit stops 2012+ (pit-lane transit, not stationary time) · Abandono = Finished(Finished·+N Voltas) non-Finished statuses
Fontes de dados: Jolpica-F1 (Ergast compatible API) · weather·Direção de prova OpenF1 (2023+) · Last fetched: 2026-09-05 14:15